Home > Weather > Chicago > Past weeks

Flag for U.S.A. Weather for the Past 2 Weeks in Chicago, Illinois, U.S.A.

Now
11 °F

Passing clouds.


Feels Like: -1 °F
Forecast: 13 / 19 °F
Wind: 8 mph from Northwest

Location: Chicago Midway Airport

Current Time: Feb 10, 2016 at 7:41:41 AM

Latest Report: Feb 10, 2016 at 6:53 AM


Visibility: 10 mi

Pressure: 30.05 "Hg

Humidity: 59%

Dew point: -1 °F

Location of ChicagoLocation

Historic Weather in Chicago — Graph

°F

Chicago Temperature Yesterday

Maximum temperature yesterday: 22 °F (at 12:53 AM)
Minimum temperature yesterday: 15 °F (at 9:53 PM)
Average temperature yesterday: 18 °F

High & Low Weather Summary for the Past Weeks

 TemperatureHumidityPressure
High49 °F (Jan 31, 12:53 PM)100% (Feb 2, 11:53 PM)30.40 "Hg (Feb 2, 11:53 PM)
Low11 °F (Feb 10, 5:53 AM)37% (Jan 29, 2:53 PM)29.46 "Hg (Feb 2, 11:01 PM)
Average33 °F69%29.94 "Hg
* Reported Jan 26 5:53 AM — Feb 10 5:53 AM, Chicago, Weather by CustomWeather, © 2016

Note: Actual official high and low records may vary slightly from our data, if they occured in-between our weather recording intervals... More about our weather records

Advertising

Chicago Weather History for the Previous 24 Hours

 ConditionsComfort  
Time TempWeatherWind HumidityBarometerVisibility
5:53 AM
Wed, Feb 10
11 °FPassing clouds.12 mph59%30.06 "Hg10 mi
4:53 AM12 °FPassing clouds.12 mph58%30.04 "Hg10 mi
3:53 AM13 °FPassing clouds.15 mph59%30.03 "Hg10 mi
2:53 AM14 °FPassing clouds.13 mph58%30.02 "Hg10 mi
1:53 AM15 °FPassing clouds.10 mph58%30.02 "Hg10 mi
12:53 AM16 °FLight snow. Overcast.15 mph59%29.99 "Hg10 mi
11:53 PM
Tue, Feb 9
16 °FLight snow. Overcast.17 mph62%29.99 "Hg10 mi
10:53 PM15 °FLight snow. Passing clouds.14 mph64%30.00 "Hg10 mi
9:53 PM15 °FLight snow. Passing clouds.16 mph67%30.00 "Hg9 mi
8:53 PM16 °FLight snow. Passing clouds.13 mph67%30.00 "Hg9 mi
7:53 PM16 °FLight snow. Overcast.14 mph67%30.00 "Hg8 mi
6:53 PM18 °FLight snow. Mostly cloudy.13 mph59%29.99 "Hg9 mi
5:53 PM18 °FLight snow. Mostly cloudy.12 mph59%29.98 "Hg9 mi
4:53 PM18 °FLight snow. More clouds than sun.14 mph59%29.96 "Hg9 mi
3:53 PM18 °FLight snow. Partly sunny.13 mph62%29.94 "Hg5 mi
2:53 PM19 °FLight snow. Overcast.13 mph57%29.91 "Hg8 mi
1:53 PM19 °FLight snow. Partly sunny.16 mph59%29.89 "Hg9 mi
12:53 PM19 °FLight snow. Mostly cloudy.14 mph62%29.88 "Hg9 mi
11:53 AM19 °FLight snow. Partly sunny.12 mph65%29.88 "Hg10 mi
10:53 AM18 °FLight snow. Cloudy.16 mph65%29.89 "Hg6 mi
9:53 AM17 °FLight snow. Mostly cloudy.16 mph68%29.88 "Hg10 mi
8:53 AM17 °FLight snow. Ice fog.18 mph70%29.86 "Hg3 mi
8:04 AM18 °FLight snow. Ice fog.12 mph74%29.81 "Hg1 mi
Weather by CustomWeather, © 2016

See weather overviewHow to use our weather pages